EW7354 Weather Reports


Display with metric or nautical units.
time (UTC)temp
F
wind
direction
speed
MPH
gust
MPH
rain 1hr
in
rain 24hr
in
rain mn
in
humidity
%
barometer
mb
20260502123036 43 292 0.0 1.0 0.00 0.00 0.00 56 1016.5
20260502121530 42 293 0.0 0.0 0.00 0.00 0.00 57 1016.4
20260502114527 43 293 0.0 1.0 0.00 0.00 0.00 55 1016.3
20260502113026 43 292 0.0 0.0 0.00 0.00 0.00 55 1016.4
20260502111522 44 293 0.0 0.0 0.00 0.00 0.00 55 1016.4
20260502110024 44 293 0.0 1.0 0.00 0.00 0.00 54 1016.5
20260502104520 44 293 0.0 0.0 0.00 0.00 0.00 53 1016.4
20260502103018 44 292 0.0 1.0 0.00 0.00 0.00 48 1016.3
20260502101516 45 292 0.0 0.0 0.00 0.00 0.00 48 1016.1
20260502091513 44 293 0.0 0.0 0.00 0.00 0.00 53 1015.9
20260502071502 47 111 0.0 1.0 0.00 0.00 0.00 41 1016.0
20260502070100 46 113 0.0 0.0 0.00 0.00 0.00 44 1016.0
20260502064602 46 111 0.0 0.0 0.00 0.00 0.00 45 1016.0
20260502063057 47 113 0.0 0.0 0.00 0.00 0.00 50 1015.8
20260502061554 48 111 0.0 0.0 0.00 0.00 0.00 49 1015.8
20260502060055 48 113 0.0 0.0 0.00 0.00 0.00 48 1015.7
20260502054550 48 113 0.0 0.0 0.00 0.00 0.00 50 1015.7
20260502053108 49 110 0.0 1.0 0.00 0.00 0.00 48 1015.6
20260502051551 49 111 0.0 1.0 0.00 0.00 0.00 49 1015.7
20260502050054 49 111 0.0 0.0 0.00 0.00 0.00 48 1015.5
20260502044549 49 112 0.0 1.0 0.00 0.00 0.00 47 1015.5
20260502043058 50 111 0.0 0.0 0.00 0.00 0.00 46 1015.4
20260502041549 51 111 0.0 0.0 0.00 0.00 0.00 45 1015.4
20260502040048 51 112 0.0 0.0 0.00 0.00 0.00 44 1015.3
20260502034547 51 111 0.0 0.0 0.00 0.00 0.00 42 1015.1
20260502033050 52 111 0.0 0.0 0.00 0.00 0.00 40 1014.9
20260502031550 53 112 0.0 0.0 0.00 0.00 0.00 38 1014.7
20260502030055 55 111 0.0 0.0 0.00 0.00 0.00 34 1014.5
20260502024546 56 112 0.0 1.0 0.00 0.00 0.00 31 1014.3
20260502023104 59 111 0.0 1.0 0.00 0.00 0.00 30 1014.3
20260502021546 60 56 0.0 3.0 0.00 0.00 0.00 27 1014.0
20260502020048 62 129 0.0 2.0 0.00 0.00 0.00 27 1013.8
20260502014544 63 155 0.0 1.0 0.00 0.00 0.00 28 1013.6
20260502013043 65 113 0.0 2.0 0.00 0.00 0.00 27 1013.4
20260502011549 67 238 0.0 3.0 0.00 0.00 0.00 25 1013.4
20260502010042 68 348 1.0 3.0 0.00 0.00 0.00 25 1013.4
20260502004553 69 144 0.0 4.0 0.00 0.00 0.00 24 1013.4
20260502003042 70 124 1.0 3.0 0.00 0.00 0.00 25 1013.3
20260502001539 71 96 1.0 3.0 0.00 0.00 0.00 23 1013.5
20260502000037 72 144 0.0 3.0 0.00 0.00 0.00 23 1013.6
20260501234536 72 110 1.0 3.0 0.00 0.00 0.00 23 1013.6
20260501233036 72 339 1.0 3.0 0.00 0.00 0.00 22 1013.6
20260501231534 72 68 0.0 3.0 0.00 0.00 0.00 21 1013.6
20260501230036 72 283 1.0 4.0 0.00 0.00 0.00 21 1013.7
20260501224538 73 99 0.0 4.0 0.00 0.00 0.00 22 1013.9
20260501223034 72 338 0.0 4.0 0.00 0.00 0.00 20 1014.1
20260501221528 73 103 0.0 2.0 0.00 0.00 0.00 21 1014.3
20260501220025 73 167 0.0 3.0 0.00 0.00 0.00 21 1014.6
20260501214528 73 160 1.0 3.0 0.00 0.00 0.00 21 1014.7
20260501213024 72 20 1.0 4.0 0.00 0.00 0.00 19 1014.8
20260501211524 73 127 0.0 2.0 0.00 0.00 0.00 19 1014.9
20260501210022 72 200 0.0 4.0 0.00 0.00 0.00 20 1015.0
20260501204520 72 118 0.0 4.0 0.00 0.00 0.00 20 1015.0
20260501203036 70 84 1.0 3.0 0.00 0.00 0.00 23 1015.0
20260501201519 70 79 1.0 3.0 0.00 0.00 0.00 21 1015.0
20260501200018 71 283 0.0 5.0 0.00 0.00 0.00 18 1015.1
20260501194520 69 284 0.0 3.0 0.00 0.00 0.00 21 1015.2
20260501193016 71 236 0.0 2.0 0.00 0.00 0.00 20 1015.3
20260501191514 71 265 0.0 3.0 0.00 0.00 0.00 22 1015.4
20260501190009 68 101 1.0 3.0 0.00 0.00 0.00 23 1015.5
20260501184525 68 70 0.0 3.0 0.00 0.00 0.00 22 1015.7
20260501183007 67 210 1.0 4.0 0.00 0.00 0.00 22 1016.0
20260501181505 66 120 0.0 1.0 0.00 0.00 0.00 22 1016.2
20260501180003 65 313 1.0 4.0 0.00 0.00 0.00 21 1016.4
20260501174559 63 158 1.0 5.0 0.00 0.00 0.00 27 1016.4
20260501173114 64 101 1.0 2.0 0.00 0.00 0.00 27 1016.6
20260501171557 63 118 0.0 1.0 0.00 0.00 0.00 29 1016.7
20260501170053 62 99 0.0 2.0 0.00 0.00 0.00 29 1016.7
20260501164601 60 136 0.0 3.0 0.00 0.00 0.00 30 1016.8
20260501163048 59 165 0.0 3.0 0.00 0.00 0.00 32 1016.8
20260501161548 59 135 0.0 2.0 0.00 0.00 0.00 31 1016.8
20260501160048 58 118 0.0 2.0 0.00 0.00 0.00 32 1016.7
20260501154548 59 129 0.0 2.0 0.00 0.00 0.00 34 1016.8
20260501153041 57 181 0.0 1.0 0.00 0.00 0.00 35 1016.8
20260501151542 57 211 0.0 1.0 0.00 0.00 0.00 35 1016.9
20260501150044 56 125 0.0 1.0 0.00 0.00 0.00 37 1017.0
20260501144534 54 127 0.0 1.0 0.00 0.00 0.00 40 1016.9
20260501143032 52 127 0.0 0.0 0.00 0.00 0.00 47 1017.0
20260501141532 44 127 0.0 1.0 0.00 0.00 0.00 63 1016.9
20260501140029 38 127 0.0 0.0 0.00 0.00 0.00 73 1016.9
20260501134536 37 127 0.0 0.0 0.00 0.00 0.00 71 1016.7